TimePST,TemperatureF,Dew PointF,Humidity,Sea Level PressureIn,VisibilityMPH,Wind Direction,Wind SpeedMPH,Gust SpeedMPH,PrecipitationIn,Events,Conditions,WindDirDegrees,DateUTC
12:53 AM,15.1,12.0,88,30.63,10.0,SSE,8.1,-,N/A,,Overcast,160,2013-01-02 08:53:00
1:53 AM,14.0,10.9,88,30.62,10.0,South,6.9,-,N/A,,Overcast,170,2013-01-02 09:53:00
2:53 AM,14.0,12.0,92,30.62,10.0,South,6.9,-,N/A,,Overcast,190,2013-01-02 10:53:00
3:53 AM,15.8,10.4,79,30.48,10.0,South,4.6,-,N/A,,Overcast,180,2013-01-02 11:53:00
4:53 AM,15.1,12.0,88,30.62,10.0,South,3.5,-,N/A,,Overcast,190,2013-01-02 12:53:00
5:53 AM,14.0,10.0,84,30.63,10.0,South,5.8,-,N/A,,Overcast,190,2013-01-02 13:53:00
6:53 AM,14.0,10.4,86,30.48,10.0,South,4.6,-,N/A,,Overcast,190,2013-01-02 14:53:00
7:53 AM,14.0,10.9,88,30.63,9.0,SSE,5.8,-,N/A,,Overcast,160,2013-01-02 15:53:00
8:42 AM,14.0,10.4,86,30.48,5.0,South,3.5,-,0.00,Snow,Light Snow,170,2013-01-02 16:42:00
8:53 AM,14.0,10.9,88,30.64,4.0,SSE,5.8,-,0.00,Snow,Light Snow,160,2013-01-02 16:53:00
9:53 AM,15.1,10.9,84,30.66,3.0,South,5.8,-,0.00,Snow,Light Snow,180,2013-01-02 17:53:00
10:03 AM,15.8,10.4,79,30.51,3.0,South,4.6,-,0.00,Snow,Light Snow,180,2013-01-02 18:03:00
10:53 AM,16.0,10.9,81,30.66,4.0,South,4.6,-,0.00,Snow,Light Snow,190,2013-01-02 18:53:00
11:53 AM,18.0,10.0,71,30.64,10.0,ESE,9.2,-,0.00,,Scattered Clouds,110,2013-01-02 19:53:00
12:08 PM,17.6,10.4,73,30.49,10.0,East,6.9,-,N/A,,Mostly Cloudy,90,2013-01-02 20:08:00
12:53 PM,19.0,10.9,71,30.63,10.0,South,5.8,-,N/A,,Overcast,190,2013-01-02 20:53:00
1:14 PM,17.6,10.4,73,30.47,10.0,SW,4.6,-,N/A,,Scattered Clouds,220,2013-01-02 21:14:00
1:53 PM,18.0,10.0,71,30.62,10.0,WSW,3.5,-,N/A,,Clear,250,2013-01-02 21:53:00
2:53 PM,17.1,10.0,74,30.63,10.0,West,4.6,-,N/A,,Clear,280,2013-01-02 22:53:00
3:53 PM,17.1,9.0,71,30.63,10.0,Calm,Calm,-,N/A,,Clear,0,2013-01-02 23:53:00
4:53 PM,12.9,7.0,77,30.63,10.0,East,8.1,-,N/A,,Clear,100,2013-01-03 00:53:00
5:53 PM,12.0,7.0,80,30.64,10.0,ESE,6.9,-,N/A,,Clear,110,2013-01-03 01:53:00
6:53 PM,10.9,6.1,81,30.64,10.0,ESE,9.2,-,N/A,,Clear,110,2013-01-03 02:53:00
7:53 PM,10.9,6.1,81,30.63,10.0,ESE,6.9,-,N/A,,Clear,120,2013-01-03 03:53:00
8:53 PM,8.1,5.0,87,30.64,10.0,Calm,Calm,-,N/A,,Clear,0,2013-01-03 04:53:00
9:53 PM,5.0,1.9,87,30.65,10.0,SW,3.5,-,N/A,,Clear,230,2013-01-03 05:53:00
10:53 PM,6.1,1.9,83,30.64,10.0,South,6.9,-,N/A,,Clear,180,2013-01-03 06:53:00
11:53 PM,5.0,1.0,84,30.62,10.0,Calm,Calm,-,N/A,,Clear,0,2013-01-03 07:53:00